Back to Top

Language: 

My Weather Underground Personal Weather Station Historical Data with Graphs...

Delerius Weather Station Historical Data
Daily Summary for March 14, 2017 Units:  English    Metric   Both
« Previous Day
Next Day »
Daily Weekly Monthly Yearly Custom
  High: Low: Average:
Temperature: 59.4 °F 48.2 °F 52.3 °F
Dew Point: 51.2 °F 41.5 °F 46.1 °F
Humidity: 88 % 55 % 80 %
Wind Speed: 22.0 mph 2.0 mph 9.8 mph
Wind Gust: 26.0 mph - -
Wind:- - West
Pressure: 30.46 in 30.33 in -
Precipitation: 0.00 in    
Historical Graphs
 
 
Tabular Data for March 14, 2017
Time Temperature Dew Point Pressure Wind Wind Speed Wind Gust Humidity Rainfall Rate (Hourly) solar Conditions
00:05 48.5 °F 44.2 °F 30.38 in West 7.0 mph 7.0 mph 85 % 0.00 in 0 W/m2
00:15 48.6 °F 44.3 °F 30.38 in West 6.0 mph 7.0 mph 85 % 0.00 in 0 W/m2
00:20 48.6 °F 44.3 °F 30.38 in West 7.0 mph 7.0 mph 85 % 0.00 in 0 W/m2
00:30 48.8 °F 44.5 °F 30.38 in WNW 7.0 mph 7.0 mph 85 % 0.00 in 0 W/m2
00:35 48.8 °F 44.5 °F 30.38 in WNW 7.0 mph 7.0 mph 85 % 0.00 in 0 W/m2
00:40 48.9 °F 44.3 °F 30.38 in West 6.0 mph 8.0 mph 84 % 0.00 in 0 W/m2
00:50 48.8 °F 44.2 °F 30.37 in West 6.0 mph 6.0 mph 84 % 0.00 in 0 W/m2
00:55 48.8 °F 44.5 °F 30.37 in WNW 6.0 mph 12.0 mph 85 % 0.00 in 0 W/m2
01:00 48.9 °F 44.3 °F 30.37 in West 7.0 mph 7.0 mph 84 % 0.00 in 0 W/m2
01:10 48.8 °F 44.2 °F 30.37 in West 5.0 mph 5.0 mph 84 % 0.00 in 0 W/m2
01:15 48.6 °F 44.0 °F 30.37 in West 3.0 mph 11.0 mph 84 % 0.00 in 0 W/m2
01:20 48.5 °F 44.2 °F 30.37 in WNW 2.0 mph 11.0 mph 85 % 0.00 in 0 W/m2
01:25 48.3 °F 44.0 °F 30.36 in WNW 2.0 mph 11.0 mph 85 % 0.00 in 0 W/m2
01:35 48.2 °F 44.2 °F 30.36 in WNW 3.0 mph 11.0 mph 86 % 0.00 in 0 W/m2
01:40 48.2 °F 44.2 °F 30.36 in West 4.0 mph 11.0 mph 86 % 0.00 in 0 W/m2
01:45 48.4 °F 44.4 °F 30.35 in WNW 5.0 mph 11.0 mph 86 % 0.00 in 0 W/m2
01:50 48.5 °F 44.5 °F 30.35 in WNW 6.0 mph 11.0 mph 86 % 0.00 in 0 W/m2
01:55 48.7 °F 44.7 °F 30.35 in West 7.0 mph 11.0 mph 86 % 0.00 in 0 W/m2
02:00 48.8 °F 44.8 °F 30.34 in WNW 8.0 mph 11.0 mph 86 % 0.00 in 0 W/m2
02:10 48.7 °F 44.7 °F 30.34 in WNW 7.0 mph 11.0 mph 86 % 0.00 in 0 W/m2
02:15 48.7 °F 44.7 °F 30.34 in WSW 8.0 mph 16.0 mph 86 % 0.00 in 0 W/m2
02:20 48.9 °F 44.9 °F 30.34 in WNW 10.0 mph 13.0 mph 86 % 0.00 in 0 W/m2
02:25 49.1 °F 45.1 °F 30.34 in WSW 13.0 mph 13.0 mph 86 % 0.00 in 0 W/m2
02:30 49.2 °F 44.9 °F 30.34 in West 12.0 mph 12.0 mph 85 % 0.00 in 0 W/m2
02:40 49.0 °F 44.7 °F 30.34 in WNW 9.0 mph 11.0 mph 85 % 0.00 in 0 W/m2
02:45 48.9 °F 44.9 °F 30.34 in West 10.0 mph 16.0 mph 86 % 0.00 in 0 W/m2
02:55 48.9 °F 44.9 °F 30.34 in WNW 10.0 mph 12.0 mph 86 % 0.00 in 0 W/m2
03:00 48.9 °F 44.9 °F 30.34 in West 10.0 mph 13.0 mph 86 % 0.00 in 0 W/m2
03:05 48.9 °F 44.9 °F 30.34 in WNW 10.0 mph 13.0 mph 86 % 0.00 in 0 W/m2
03:15 48.9 °F 44.9 °F 30.34 in WNW 9.0 mph 12.0 mph 86 % 0.00 in 0 W/m2
03:20 48.9 °F 44.9 °F 30.34 in WNW 10.0 mph 12.0 mph 86 % 0.00 in 0 W/m2
03:25 48.8 °F 44.8 °F 30.34 in WNW 9.0 mph 12.0 mph 86 % 0.00 in 0 W/m2
03:30 48.8 °F 45.1 °F 30.33 in WNW 9.0 mph 11.0 mph 87 % 0.00 in 0 W/m2
03:35 48.7 °F 45.0 °F 30.33 in WNW 9.0 mph 14.0 mph 87 % 0.00 in 0 W/m2
03:40 48.7 °F 45.0 °F 30.33 in WNW 9.0 mph 11.0 mph 87 % 0.00 in 0 W/m2
03:50 48.6 °F 44.9 °F 30.33 in WNW 7.0 mph 11.0 mph 87 % 0.00 in 0 W/m2
03:55 48.6 °F 44.9 °F 30.33 in WNW 7.0 mph 11.0 mph 87 % 0.00 in 0 W/m2
04:00 48.6 °F 45.2 °F 30.33 in West 7.0 mph 7.0 mph 88 % 0.00 in 0 W/m2
04:10 48.9 °F 45.5 °F 30.33 in WNW 8.0 mph 8.0 mph 88 % 0.00 in 0 W/m2
04:15 49.2 °F 45.8 °F 30.33 in WNW 8.0 mph 11.0 mph 88 % 0.00 in 0 W/m2
04:20 49.6 °F 45.9 °F 30.33 in West 9.0 mph 11.0 mph 87 % 0.00 in 0 W/m2
04:25 50.1 °F 46.1 °F 30.33 in West 10.0 mph 12.0 mph 86 % 0.00 in 0 W/m2
04:30 50.4 °F 46.4 °F 30.33 in WNW 9.0 mph 9.0 mph 86 % 0.00 in 0 W/m2
04:35 50.5 °F 46.5 °F 30.33 in WSW 8.0 mph 10.0 mph 86 % 0.00 in 0 W/m2
04:40 50.8 °F 46.5 °F 30.33 in West 9.0 mph 9.0 mph 85 % 0.00 in 0 W/m2
04:45 51.1 °F 46.7 °F 30.33 in West 10.0 mph 14.0 mph 85 % 0.00 in 0 W/m2
04:55 51.3 °F 46.6 °F 30.33 in WNW 10.0 mph 13.0 mph 84 % 0.00 in 0 W/m2
05:00 51.3 °F 46.6 °F 30.33 in WNW 10.0 mph 10.0 mph 84 % 0.00 in 0 W/m2
05:05 51.2 °F 46.5 °F 30.33 in West 9.0 mph 11.0 mph 84 % 0.00 in 0 W/m2
05:10 51.2 °F 46.5 °F 30.33 in WNW 9.0 mph 9.0 mph 84 % 0.00 in 0 W/m2
05:20 51.3 °F 46.9 °F 30.34 in West 8.0 mph 12.0 mph 85 % 0.00 in 0 W/m2
05:25 51.5 °F 46.8 °F 30.34 in West 9.0 mph 12.0 mph 84 % 0.00 in 0 W/m2
05:30 51.6 °F 46.9 °F 30.33 in WSW 9.0 mph 12.0 mph 84 % 0.00 in 0 W/m2
05:40 51.7 °F 47.0 °F 30.34 in West 10.0 mph 10.0 mph 84 % 0.00 in 0 W/m2
05:45 51.6 °F 46.9 °F 30.34 in WSW 9.0 mph 11.0 mph 84 % 0.00 in 0 W/m2
05:50 51.5 °F 46.8 °F 30.34 in West 9.0 mph 9.0 mph 84 % 0.00 in 0 W/m2
05:55 51.3 °F 46.6 °F 30.34 in West 9.0 mph 11.0 mph 84 % 0.00 in 0 W/m2
06:05 51.2 °F 46.8 °F 30.34 in WSW 9.0 mph 15.0 mph 85 % 0.00 in 0 W/m2
06:10 51.3 °F 46.9 °F 30.34 in West 9.0 mph 11.0 mph 85 % 0.00 in 0 W/m2
06:15 51.3 °F 46.9 °F 30.34 in WSW 9.0 mph 11.0 mph 85 % 0.00 in 0 W/m2
06:20 51.3 °F 46.9 °F 30.34 in SSW 10.0 mph 10.0 mph 85 % 0.00 in 0 W/m2
06:25 51.3 °F 46.9 °F 30.34 in West 9.0 mph 16.0 mph 85 % 0.00 in 0 W/m2
06:35 51.5 °F 46.8 °F 30.34 in West 10.0 mph 12.0 mph 84 % 0.00 in 5 W/m2
06:40 51.5 °F 46.8 °F 30.34 in WSW 11.0 mph 11.0 mph 84 % 0.00 in 7 W/m2
06:45 51.6 °F 46.9 °F 30.34 in West 11.0 mph 12.0 mph 84 % 0.00 in 9 W/m2
06:50 51.6 °F 46.9 °F 30.34 in WSW 10.0 mph 10.0 mph 84 % 0.00 in 14 W/m2
06:55 51.6 °F 46.9 °F 30.34 in SW 8.0 mph 11.0 mph 84 % 0.00 in 14 W/m2
07:00 51.6 °F 46.9 °F 30.34 in West 10.0 mph 10.0 mph 84 % 0.00 in 21 W/m2
07:10 51.4 °F 46.7 °F 30.34 in WSW 10.0 mph 13.0 mph 84 % 0.00 in 32 W/m2
07:20 51.5 °F 46.8 °F 30.35 in WSW 9.0 mph 9.0 mph 84 % 0.00 in 51 W/m2
07:25 51.6 °F 46.9 °F 30.35 in WSW 9.0 mph 13.0 mph 84 % 0.00 in 56 W/m2
07:30 51.6 °F 47.2 °F 30.35 in WSW 8.0 mph 15.0 mph 85 % 0.00 in 63 W/m2
07:35 51.7 °F 47.3 °F 30.35 in WSW 9.0 mph 15.0 mph 85 % 0.00 in 67 W/m2
07:40 51.7 °F 47.3 °F 30.35 in WSW 9.0 mph 9.0 mph 85 % 0.00 in 90 W/m2
07:45 51.8 °F 47.4 °F 30.35 in NW 7.0 mph 11.0 mph 85 % 0.00 in 74 W/m2
07:50 51.9 °F 47.5 °F 30.34 in West 6.0 mph 11.0 mph 85 % 0.00 in 74 W/m2
07:55 52.0 °F 47.6 °F 30.35 in West 7.0 mph 11.0 mph 85 % 0.00 in 98 W/m2
08:00 52.1 °F 47.7 °F 30.34 in WSW 7.0 mph 7.0 mph 85 % 0.00 in 116 W/m2
08:05 52.3 °F 47.9 °F 30.34 in WSW 7.0 mph 11.0 mph 85 % 0.00 in 121 W/m2
08:15 52.5 °F 47.8 °F 30.34 in West 7.0 mph 11.0 mph 84 % 0.00 in 149 W/m2
08:20 52.7 °F 48.0 °F 30.34 in WSW 7.0 mph 7.0 mph 84 % 0.00 in 130 W/m2
08:25 52.9 °F 48.2 °F 30.34 in West 7.0 mph 11.0 mph 84 % 0.00 in 144 W/m2
08:30 53.1 °F 48.1 °F 30.35 in WNW 7.0 mph 7.0 mph 83 % 0.00 in 135 W/m2
08:40 53.2 °F 47.8 °F 30.35 in West 8.0 mph 8.0 mph 82 % 0.00 in 116 W/m2
08:45 53.3 °F 47.9 °F 30.35 in WSW 9.0 mph 9.0 mph 82 % 0.00 in 127 W/m2
08:55 53.6 °F 47.9 °F 30.35 in SW 8.0 mph 9.0 mph 81 % 0.00 in 162 W/m2
09:00 53.7 °F 48.0 °F 30.34 in West 10.0 mph 15.0 mph 81 % 0.00 in 176 W/m2
09:05 53.8 °F 48.1 °F 30.34 in WSW 12.0 mph 15.0 mph 81 % 0.00 in 174 W/m2
09:10 53.8 °F 48.1 °F 30.34 in West 13.0 mph 13.0 mph 81 % 0.00 in 181 W/m2
09:20 53.9 °F 48.2 °F 30.34 in West 12.0 mph 22.0 mph 81 % 0.00 in 192 W/m2
09:25 53.9 °F 48.2 °F 30.34 in SW 14.0 mph 22.0 mph 81 % 0.00 in 199 W/m2
09:30 53.9 °F 48.5 °F 30.34 in West 13.0 mph 13.0 mph 82 % 0.00 in 199 W/m2
09:35 53.9 °F 48.5 °F 30.34 in WSW 11.0 mph 16.0 mph 82 % 0.00 in 199 W/m2
09:40 54.0 °F 48.6 °F 30.34 in WSW 11.0 mph 11.0 mph 82 % 0.00 in 206 W/m2
09:45 53.9 °F 48.5 °F 30.35 in WSW 13.0 mph 13.0 mph 82 % 0.00 in 214 W/m2
09:55 53.8 °F 48.8 °F 30.34 in West 12.0 mph 13.0 mph 83 % 0.00 in 225 W/m2
10:00 53.9 °F 49.2 °F 30.35 in WSW 12.0 mph 12.0 mph 84 % 0.00 in 225 W/m2
10:10 54.1 °F 49.4 °F 30.35 in WSW 12.0 mph 13.0 mph 84 % 0.00 in 257 W/m2
10:15 54.3 °F 49.6 °F 30.35 in WSW 11.0 mph 16.0 mph 84 % 0.00 in 267 W/m2
10:20 54.4 °F 49.3 °F 30.35 in WSW 11.0 mph 11.0 mph 83 % 0.00 in 274 W/m2
10:30 54.8 °F 49.7 °F 30.35 in WSW 13.0 mph 16.0 mph 83 % 0.00 in 336 W/m2
10:35 55.1 °F 49.7 °F 30.34 in WSW 13.0 mph 16.0 mph 82 % 0.00 in 350 W/m2
10:40 55.2 °F 49.8 °F 30.34 in WSW 14.0 mph 14.0 mph 82 % 0.00 in 396 W/m2
10:45 55.2 °F 49.8 °F 30.35 in WSW 14.0 mph 14.0 mph 82 % 0.00 in 343 W/m2
10:50 55.3 °F 49.9 °F 30.34 in WSW 14.0 mph 19.0 mph 82 % 0.00 in 378 W/m2
10:55 55.4 °F 50.0 °F 30.35 in WSW 15.0 mph 19.0 mph 82 % 0.00 in 438 W/m2
11:05 55.6 °F 50.2 °F 30.35 in West 15.0 mph 19.0 mph 82 % 0.00 in 265 W/m2
11:10 55.5 °F 50.1 °F 30.35 in WSW 15.0 mph 15.0 mph 82 % 0.00 in 353 W/m2
11:20 55.6 °F 50.2 °F 30.36 in WSW 15.0 mph 15.0 mph 82 % 0.00 in 338 W/m2
11:25 55.6 °F 50.2 °F 30.36 in NW 15.0 mph 15.0 mph 82 % 0.00 in 343 W/m2
11:40 55.5 °F 50.1 °F 30.36 in West 16.0 mph 16.0 mph 82 % 0.00 in 265 W/m2
11:45 55.5 °F 50.1 °F 30.36 in WSW 16.0 mph 20.0 mph 82 % 0.00 in 244 W/m2
11:50 55.4 °F 50.0 °F 30.37 in West 16.0 mph 16.0 mph 82 % 0.00 in 237 W/m2
11:55 55.3 °F 50.2 °F 30.37 in West 16.0 mph 16.0 mph 83 % 0.00 in 248 W/m2
12:05 55.2 °F 50.4 °F 30.37 in West 17.0 mph 21.0 mph 84 % 0.00 in 202 W/m2
12:10 55.2 °F 50.4 °F 30.37 in West 16.0 mph 16.0 mph 84 % 0.00 in 185 W/m2
12:15 55.1 °F 50.4 °F 30.38 in West 15.0 mph 16.0 mph 84 % 0.00 in 116 W/m2
12:25 54.9 °F 50.8 °F 30.37 in WSW 12.0 mph 14.0 mph 86 % 0.00 in 197 W/m2
12:30 54.9 °F 50.8 °F 30.37 in West 12.0 mph 12.0 mph 86 % 0.00 in 193 W/m2
12:35 54.9 °F 50.8 °F 30.38 in West 12.0 mph 20.0 mph 86 % 0.00 in 95 W/m2
12:45 54.6 °F 50.8 °F 30.37 in West 11.0 mph 16.0 mph 87 % 0.00 in 118 W/m2
12:50 54.5 °F 50.7 °F 30.37 in West 11.0 mph 11.0 mph 87 % 0.00 in 137 W/m2
12:55 54.6 °F 50.8 °F 30.37 in WSW 11.0 mph 11.0 mph 87 % 0.00 in 197 W/m2
13:00 54.8 °F 50.7 °F 30.37 in West 11.0 mph 13.0 mph 86 % 0.00 in 214 W/m2
13:05 55.1 °F 50.7 °F 30.37 in West 13.0 mph 13.0 mph 85 % 0.00 in 327 W/m2
13:15 56.4 °F 51.0 °F 30.37 in West 13.0 mph 16.0 mph 82 % 0.00 in 605 W/m2
13:20 57.3 °F 51.2 °F 30.37 in West 15.0 mph 15.0 mph 80 % 0.00 in 580 W/m2
13:25 57.9 °F 50.0 °F 30.36 in West 17.0 mph 19.0 mph 75 % 0.00 in 492 W/m2
13:30 58.0 °F 49.4 °F 30.36 in NW 19.0 mph 19.0 mph 73 % 0.00 in 508 W/m2
13:40 58.3 °F 48.9 °F 30.36 in WSW 22.0 mph 24.0 mph 71 % 0.00 in 510 W/m2
13:45 58.7 °F 49.3 °F 30.36 in West 19.0 mph 24.0 mph 71 % 0.00 in 577 W/m2
13:50 59.2 °F 48.6 °F 30.36 in WNW 17.0 mph 17.0 mph 68 % 0.00 in 497 W/m2
13:55 59.2 °F 47.8 °F 30.37 in West 18.0 mph 19.0 mph 66 % 0.00 in 494 W/m2
14:00 59.0 °F 47.2 °F 30.37 in West 20.0 mph 20.0 mph 65 % 0.00 in 512 W/m2
14:05 59.0 °F 46.4 °F 30.37 in WNW 21.0 mph 21.0 mph 63 % 0.00 in 522 W/m2
14:10 59.1 °F 46.1 °F 30.37 in West 20.0 mph 26.0 mph 62 % 0.00 in 490 W/m2
14:15 59.1 °F 46.1 °F 30.37 in West 19.0 mph 26.0 mph 62 % 0.00 in 483 W/m2
14:25 59.2 °F 46.2 °F 30.36 in WNW 19.0 mph 19.0 mph 62 % 0.00 in 482 W/m2
14:30 59.3 °F 46.3 °F 30.36 in NW 19.0 mph 19.0 mph 62 % 0.00 in 487 W/m2
14:35 59.4 °F 46.4 °F 30.36 in WNW 18.0 mph 19.0 mph 62 % 0.00 in 468 W/m2
14:40 59.4 °F 46.8 °F 30.37 in West 17.0 mph 17.0 mph 63 % 0.00 in 461 W/m2
14:45 59.3 °F 46.7 °F 30.37 in West 17.0 mph 17.0 mph 63 % 0.00 in 413 W/m2
14:55 58.9 °F 46.3 °F 30.37 in WNW 17.0 mph 17.0 mph 63 % 0.00 in 436 W/m2
15:00 58.8 °F 46.2 °F 30.37 in West 18.0 mph 22.0 mph 63 % 0.00 in 353 W/m2
15:05 58.5 °F 45.9 °F 30.37 in West 19.0 mph 22.0 mph 63 % 0.00 in 202 W/m2
15:10 57.9 °F 45.8 °F 30.37 in WNW 19.0 mph 19.0 mph 64 % 0.00 in 113 W/m2
15:15 57.6 °F 45.5 °F 30.38 in West 17.0 mph 19.0 mph 64 % 0.00 in 213 W/m2
15:20 57.7 °F 46.0 °F 30.38 in West 15.0 mph 15.0 mph 65 % 0.00 in 100 W/m2
15:30 57.5 °F 45.0 °F 30.38 in WNW 16.0 mph 25.0 mph 63 % 0.00 in 313 W/m2
15:40 57.9 °F 44.1 °F 30.38 in West 17.0 mph 19.0 mph 60 % 0.00 in 320 W/m2
15:45 58.0 °F 42.8 °F 30.38 in WNW 17.0 mph 19.0 mph 57 % 0.00 in 294 W/m2
15:50 58.0 °F 42.4 °F 30.38 in West 16.0 mph 16.0 mph 56 % 0.00 in 262 W/m2
16:05 57.6 °F 41.5 °F 30.38 in West 17.0 mph 23.0 mph 55 % 0.00 in 248 W/m2
19:08 51.6 °F 41.9 °F 30.42 in West 6.0 mph 11.0 mph 69 % 0.00 in 0 W/m2
19:13 51.6 °F 42.1 °F 30.42 in West 5.0 mph 11.0 mph 70 % 0.00 in 0 W/m2
19:18 51.4 °F 42.0 °F 30.43 in West 4.0 mph 9.0 mph 70 % 0.00 in 0 W/m2
19:23 51.3 °F 42.2 °F 30.43 in West 4.0 mph 8.0 mph 71 % 0.00 in 0 W/m2
19:28 51.3 °F 42.2 °F 30.43 in West 3.0 mph 7.0 mph 71 % 0.00 in 0 W/m2
19:33 51.1 °F 42.0 °F 30.43 in West 3.0 mph 7.0 mph 71 % 0.00 in 0 W/m2
19:38 50.9 °F 42.2 °F 30.43 in West 3.0 mph 7.0 mph 72 % 0.00 in 0 W/m2
19:48 50.7 °F 42.4 °F 30.43 in West 5.0 mph 12.0 mph 73 % 0.00 in 0 W/m2
19:53 50.7 °F 42.4 °F 30.43 in West 6.0 mph 12.0 mph 73 % 0.00 in 0 W/m2
19:58 50.5 °F 42.6 °F 30.43 in West 7.0 mph 13.0 mph 74 % 0.00 in 0 W/m2
20:13 50.5 °F 42.6 °F 30.43 in West 5.0 mph 5.0 mph 74 % 0.00 in 0 W/m2
20:18 50.5 °F 42.9 °F 30.43 in West 7.0 mph 11.0 mph 75 % 0.00 in 0 W/m2
20:23 50.5 °F 42.9 °F 30.43 in West 7.0 mph 12.0 mph 75 % 0.00 in 0 W/m2
20:28 50.5 °F 42.9 °F 30.44 in West 8.0 mph 12.0 mph 75 % 0.00 in 0 W/m2
20:33 50.5 °F 43.3 °F 30.44 in West 7.0 mph 11.0 mph 76 % 0.00 in 0 W/m2
20:38 50.5 °F 43.3 °F 30.44 in West 8.0 mph 16.0 mph 76 % 0.00 in 0 W/m2
20:43 50.5 °F 43.6 °F 30.44 in West 8.0 mph 16.0 mph 77 % 0.00 in 0 W/m2
20:48 50.5 °F 43.6 °F 30.44 in West 7.0 mph 13.0 mph 77 % 0.00 in 0 W/m2
20:53 50.5 °F 43.6 °F 30.44 in West 6.0 mph 10.0 mph 77 % 0.00 in 0 W/m2
20:58 50.4 °F 43.8 °F 30.44 in West 6.0 mph 10.0 mph 78 % 0.00 in 0 W/m2
21:03 50.4 °F 44.1 °F 30.44 in West 6.0 mph 10.0 mph 79 % 0.00 in 0 W/m2
21:08 50.4 °F 44.1 °F 30.44 in West 6.0 mph 10.0 mph 79 % 0.00 in 0 W/m2
21:13 50.4 °F 44.1 °F 30.44 in West 6.0 mph 12.0 mph 79 % 0.00 in 0 W/m2
21:18 50.4 °F 44.4 °F 30.44 in West 7.0 mph 12.0 mph 80 % 0.00 in 0 W/m2
21:23 50.4 °F 44.4 °F 30.45 in West 7.0 mph 13.0 mph 80 % 0.00 in 0 W/m2
21:28 50.5 °F 44.6 °F 30.45 in West 8.0 mph 14.0 mph 80 % 0.00 in 0 W/m2
21:33 50.7 °F 44.4 °F 30.45 in West 8.0 mph 14.0 mph 79 % 0.00 in 0 W/m2
21:38 50.7 °F 44.4 °F 30.45 in WNW 7.0 mph 13.0 mph 79 % 0.00 in 0 W/m2
21:43 50.7 °F 44.4 °F 30.45 in WNW 7.0 mph 12.0 mph 79 % 0.00 in 0 W/m2
21:48 50.7 °F 44.4 °F 30.45 in WNW 6.0 mph 11.0 mph 79 % 0.00 in 0 W/m2
21:53 50.7 °F 44.4 °F 30.45 in WNW 3.0 mph 8.0 mph 79 % 0.00 in 0 W/m2
21:59 50.7 °F 44.4 °F 30.45 in West 7.0 mph 8.0 mph 79 % 0.00 in 0 W/m2
22:04 50.7 °F 44.8 °F 30.45 in West 7.0 mph 13.0 mph 80 % 0.00 in 0 W/m2
22:09 50.7 °F 44.8 °F 30.45 in West 7.0 mph 13.0 mph 80 % 0.00 in 0 W/m2
22:18 50.7 °F 44.8 °F 30.45 in West 8.0 mph 8.0 mph 80 % 0.00 in 0 W/m2
22:23 50.7 °F 44.8 °F 30.45 in West 5.0 mph 8.0 mph 80 % 0.00 in 0 W/m2
22:28 50.7 °F 44.4 °F 30.45 in West 6.0 mph 11.0 mph 79 % 0.00 in 0 W/m2
22:33 50.7 °F 44.4 °F 30.45 in West 6.0 mph 11.0 mph 79 % 0.00 in 0 W/m2
22:38 50.7 °F 44.4 °F 30.45 in West 5.0 mph 9.0 mph 79 % 0.00 in 0 W/m2
22:43 50.5 °F 44.3 °F 30.45 in West 5.0 mph 8.0 mph 79 % 0.00 in 0 W/m2
22:48 50.5 °F 44.3 °F 30.45 in West 5.0 mph 11.0 mph 79 % 0.00 in 0 W/m2
22:49 50.5 °F 44.3 °F 30.45 in West 5.0 mph 11.0 mph 79 % 0.00 in 0 W/m2
22:54 50.5 °F 43.9 °F 30.45 in West 5.0 mph 11.0 mph 78 % 0.00 in 0 W/m2
22:59 50.5 °F 43.6 °F 30.45 in West 5.0 mph 10.0 mph 77 % 0.00 in 0 W/m2
23:04 50.5 °F 43.6 °F 30.45 in West 4.0 mph 8.0 mph 77 % 0.00 in 0 W/m2
23:09 50.4 °F 43.4 °F 30.45 in West 4.0 mph 7.0 mph 77 % 0.00 in 0 W/m2
23:14 50.4 °F 43.4 °F 30.45 in West 3.0 mph 7.0 mph 77 % 0.00 in 0 W/m2
23:19 50.4 °F 43.1 °F 30.45 in West 4.0 mph 10.0 mph 76 % 0.00 in 0 W/m2
23:24 50.4 °F 43.1 °F 30.45 in West 6.0 mph 10.0 mph 76 % 0.00 in 0 W/m2
23:29 50.4 °F 43.1 °F 30.45 in West 6.0 mph 10.0 mph 76 % 0.00 in 0 W/m2
23:34 50.2 °F 42.9 °F 30.45 in WNW 8.0 mph 12.0 mph 76 % 0.00 in 0 W/m2
23:39 50.2 °F 42.9 °F 30.45 in WNW 9.0 mph 14.0 mph 76 % 0.00 in 0 W/m2
23:44 50.2 °F 42.9 °F 30.45 in WNW 9.0 mph 14.0 mph 76 % 0.00 in 0 W/m2
23:49 50.2 °F 42.9 °F 30.45 in West 10.0 mph 18.0 mph 76 % 0.00 in 0 W/m2
23:54 50.2 °F 42.9 °F 30.45 in West 10.0 mph 18.0 mph 76 % 0.00 in 0 W/m2
23:59 50.2 °F 42.9 °F 30.46 in West 9.0 mph 15.0 mph 76 % 0.00 in 0 W/m2
Delerius-Weather
Compliments of Weather Underground - 1.75 mb

Data updates at regular intervals.